SCP
0 0 0 0 0 0 0 0 0 0 0 0 0 0 0 0 0 0 0 0 0 0 0 0 0 0 0 0 0 0 0 0 0 0 0 0 0 0 0 0 0 0 0
0 0 0 0 0 0 0 0 0 0 0 0 0 0 0 0 0 0 0 0 0 0 0 0 0 0 0 0 0 0 0 0 0 0 0 0 0 0 0 0 0 0 0
0 0 0 0 0 0 0 0 0 0 0 0 0 0 0 0 0 0 0 0 0 0 0 0 0 0 0 0 0 0 0 0 0 0 0 0 0 0 0 0 0 1 1
0 0 0 0 0 0 0 0 0 0 0 0 0 0 0 0 0 0 0 0 0 0 0 0 0 0 0 0 0 0 0 0 0 0 0 0 0 0 0 0 0 1 1
0 0 0 0 0 0 0 0 0 0 0 0 0 0 0 0 0 0 0 0 0 0 0 0 0 0 0 0 0 0 0 0 0 0 0 0 0 0 0 0 1 1 1
0 0 0 0 0 0 0 0 0 0 0 0 0 0 0 0 0 0 0 0 0 0 0 0 0 0 0 0 0 0 0 0 0 0 0 0 0 0 0 0 1 1 1
0 0 0 0 0 0 0 0 0 0 0 0 0 0 0 0 0 0 0 0 0 0 0 0 0 0 0 0 0 0 0 0 0 0 0 0 0 0 0 0 0 1 0
0 0 0 0 0 0 0 0 0 0 0 0 0 0 0 0 0 0 0 0 0 0 0 0 0 0 0 0 0 0 0 0 0 0 0 0 0 0 0 0 0 0 0
0 0 0 0 0 0 0 0 0 0 0 0 0 0 0 0 0 0 0 0 0 0 0 0 0 0 0 0 0 0 0 0 0 0 0 0 0 0 0 0 0 0 0
0 0 0 0 0 0 0 0 0 0 0 0 0 0 0 0 0 0 0 0 0 0 0 0 0 0 0 0 0 0 0 0 0 0 0 0 0 0 0 0 0 0 0
0 0 0 0 0 0 0 0 0 0 0 0 0 0 0 0 0 0 0 0 0 0 0 0 0 0 0 0 0 0 0 0 0 0 0 0 0 0 0 0 0 0 0
0 0 0 0 0 0 0 0 0 0 0 0 0 0 0 0 0 0 0 0 0 0 0 0 0 0 0 0 0 0 0 0 0 0 0 0 0 0 0 0 0 0 0
0 0 0 0 0 0 0 0 0 0 0 0 0 0 0 0 0 0 0 0 0 0 0 0 0 0 0 0 0 0 0 0 0 0 0 0 0 0 0 0 0 0 0
0 0 0 0 0 0 0 0 0 0 0 0 0 0 0 0 0 0 0 0 0 0 0 0 0 0 0 0 0 0 0 0 0 0 0 0 0 0 0 0 0 0 0
0 0 0 0 0 0 0 0 0 0 0 0 0 0 0 0 0 0 0 0 0 0 0 0 0 0 0 0 0 0 0 0 0 0 0 0 0 0 0 0 0 0 0
0 0 0 0 0 0 0 0 0 0 0 0 0 0 0 0 0 0 0 0 0 0 0 0 0 0 0 0 0 0 0 0 0 0 0 0 0 0 0 0 0 0 0
0 0 0 0 0 0 0 0 0 0 0 0 0 0 0 0 0 0 0 0 0 0 0 0 0 0 0 0 0 0 0 0 0 0 0 0 0 0 0 0 0 0 0
0 0 0 0 0 0 0 0 0 0 0 0 0 0 0 0 0 0 0 0 0 0 0 0 0 0 0 0 0 0 0 0 0 0 0 0 0 0 0 0 0 0 0
0 0 0 0 0 0 0 0 0 0 0 0 0 0 0 0 0 0 0 0 0 0 0 0 0 0 0 0 0 0 0 0 0 0 0 0 0 0 0 0 0 0 0
0 0 0 0 0 0 0 0 0 0 0 0 0 0 0 0 0 0 0 0 0 0 0 0 0 0 0 0 0 0 0 0 0 0 0 0 0 0 0 0 0 0 0
0 0 0 0 0 0 0 0 0 0 0 0 0 0 0 0 0 0 0 0 0 0 0 0 0 0 0 0 0 0 0 0 0 0 0 0 0 0 0 0 0 0 0
0 0 0 0 0 0 0 0 0 0 0 0 0 0 0 0 0 0 0 0 0 0 0 0 0 0 0 0 0 0 0 0 0 0 0 0 0 0 0 0 0 0 0
0 0 0 0 0 0 0 0 0 0 0 0 0 0 0 0 0 0 0 0 0 0 0 0 0 0 0 0 0 0 0 0 0 0 0 0 0 0 0 0 0 0 0
0 0 0 0 0 0 0 0 0 0 0 0 0 0 0 0 0 0 0 0 0 0 0 0 0 0 0 0 0 0 0 0 0 0 0 0 0 0 0 0 0 0 0
0 0 0 0 0 0 0 0 0 0 0 0 0 0 0 0 0 0 0 0 0 0 0 0 0 0 0 0 0 0 0 0 0 0 0 0 0 0 0 0 0 0 0
0 0 0 0 0 0 0 0 0 0 0 0 0 0 0 0 0 0 0 0 0 0 0 0 0 0 0 0 0 0 0 0 0 0 0 0 0 0 0 0 0 0 0
Wind_Speed
2 2 1 1 1 1 1 1 1 1 1 1 1 1 1 2 2 1 1 1 1 1 1 1 2 1 1 1 1 1 2 2 2 2 2 1 1 1 1 1 1 2 2
2 2 2 1 1 1 1 1 1 1 2 1 1 1 1 1 1 1 1 1 1 1 2 1 2 1 1 1 1 1 2 2 3 2 2 1 2 2 1 1 1 2 2
2 2 1 1 1 1 2 2 1 1 1 1 1 1 2 1 1 1 1 1 1 2 2 2 2 1 1 1 1 1 1 2 2 2 2 1 1 1 0 1 1 1 1
2 2 1 1 1 2 2 1 1 1 1 1 1 2 2 2 1 1 1 2 2 2 2 2 2 2 3 2 2 2 2 1 1 1 2 1 1 1 1 1 1 0 1
2 1 1 1 1 1 1 1 1 1 1 1 1 2 2 2 1 1 1 1 2 3 2 2 2 3 3 3 2 2 2 2 1 2 2 1 2 1 2 2 2 1 1
2 0 0 1 1 1 1 1 1 2 2 2 1 2 2 3 3 2 1 1 1 2 3 3 3 3 3 3 4 4 4 4 3 2 2 3 3 3 2 2 2 1 2
1 0 1 0 1 1 2 1 2 2 2 2 3 2 3 4 5 4 3 1 2 2 3 3 3 3 3 2 3 4 5 6 7 5 4 5 4 4 4 3 3 3 4
1 1 1 1 1 1 2 2 2 2 2 3 3 3 3 5 6 6 4 2 2 3 3 3 4 4 3 3 2 3 3 4 5 5 5 6 5 4 5 5 5 3 1
1 1 1 1 1 1 2 2 2 2 2 3 3 3 3 6 7 6 4 1 2 3 4 3 3 4 6 4 2 3 4 4 5 6 7 6 6 6 4 3 3 3 2
2 2 2 1 1 1 2 2 2 2 2 3 3 3 3 5 7 7 5 2 2 3 3 4 5 5 6 4 3 3 5 5 3 3 3 4 4 3 4 5 5 4 3
2 1 1 1 1 2 2 2 2 2 2 3 4 4 4 5 7 8 6 2 3 4 3 3 4 7 7 7 5 5 7 6 3 3 3 3 2 2 2 3 4 5 4
2 2 2 2 2 2 2 2 2 2 2 3 3 5 4 5 5 7 8 6 5 4 5 4 5 9 9 9 6 7 8 6 2 2 3 3 3 3 3 3 3 3 3
2 2 3 3 2 2 2 2 3 2 2 3 3 4 5 4 5 8 8 8 7 5 5 8 9 10 9 7 9 9 6 3 3 3 4 4 4 4 2 1 2 2 1
2 2 3 3 3 3 2 2 2 2 3 3 4 4 5 4 4 4 4 4 6 5 5 7 9 9 7 7 6 5 4 4 4 5 5 4 2 2 3 2 2 2 1
1 2 3 3 3 3 3 3 3 4 4 4 4 4 4 5 7 9 6 5 4 5 4 3 3 3 4 4 4 4 3 3 4 4 4 3 3 3 3 3 3 2 3
1 2 2 2 3 3 3 5 6 6 9 10 9 7 6 8 11 11 10 10 10 8 4 3 5 5 5 6 5 5 4 5 5 4 4 4 4 4 4 3 2 3 4
1 2 2 3 3 3 3 4 6 7 8 9 10 10 9 10 11 10 10 10 9 6 4 5 5 6 6 6 6 6 6 5 5 5 5 5 5 5 4 4 4 3 4
2 3 3 3 3 3 4 4 4 5 6 6 7 10 11 12 11 11 10 6 5 4 4 5 6 6 6 6 6 6 6 5 5 6 6 5 5 5 5 5 5 5 5
2 2 3 3 3 4 4 4 4 5 5 6 5 7 10 10 9 9 6 3 5 5 5 6 6 6 6 6 6 6 6 6 6 6 6 6 6 5 5 6 6 7 6
2 6 5 3 3 4 4 4 4 5 5 5 6 6 5 4 4 5 4 4 5 6 6 6 6 6 7 6 6 6 6 6 6 6 6 6 6 5 6 6 6 5 5
3 4 7 5 3 4 4 5 5 5 5 6 6 7 9 5 5 6 6 6 6 7 7 7 6 6 7 6 6 6 7 6 6 6 6 6 6 6 5 5 6 6 5
3 3 3 4 4 4 5 5 5 6 6 7 6 7 10 6 5 6 6 6 6 7 7 6 6 6 6 6 6 6 6 6 6 6 6 6 6 6 6 6 5 5 5
3 4 4 4 5 7 6 5 5 6 6 7 7 6 6 6 6 6 7 7 7 7 6 6 7 7 6 6 6 6 7 7 6 6 6 6 5 5 6 6 7 6 6
4 4 5 5 5 5 6 6 6 6 7 7 7 7 7 7 7 8 8 7 7 7 7 7 7 9 10 8 6 6 6 6 6 6 8 7 6 5 5 6 7 7 7
4 5 5 6 6 6 6 7 7 7 7 7 7 7 7 7 8 8 8 7 8 8 9 9 7 8 10 11 9 7 8 9 8 6 6 6 7 7 6 6 6 6 6
5 6 6 6 6 6 6 7 7 7 7 7 7 7 7 8 8 8 7 7 7 8 8 8 9 10 11 9 10 10 10 10 10 9 6 5 7 6 6 5 7 7 7
Wind_Direction
182 178 153 182 195 170 163 248 272 303 310 297 294 311 323 321 323 346 314 329 340 323 317 288 287 279 258 257 195 170 172 158 192 272 275 282 276 265 258 226 218 215 224
181 162 167 178 179 184 232 261 285 309 303 290 293 307 310 312 319 323 297 303 290 303 301 302 294 291 275 261 216 208 201 185 180 235 282 288 263 252 233 222 223 207 212
146 136 135 162 191 227 242 255 274 299 321 338 336 297 290 289 301 296 285 288 276 270 265 257 266 255 274 268 231 225 223 207 183 199 255 261 269 266 235 255 228 239 217
128 126 140 212 219 233 244 245 252 268 302 317 312 293 290 283 276 294 306 303 295 292 277 256 246 224 229 236 224 224 216 203 192 205 247 266 262 266 174 210 244 257 237
100 96 256 269 272 295 279 264 273 281 281 275 309 319 313 293 282 288 277 295 297 298 297 279 260 243 237 226 212 208 195 200 206 211 240 256 253 232 221 209 207 226 250
102 116 346 27 15 331 298 284 298 297 294 300 294 293 298 298 308 298 274 271 284 288 288 286 279 270 274 262 240 218 196 193 202 207 229 229 239 228 218 199 187 185 243
90 28 11 24 340 315 329 333 300 289 296 297 288 283 279 284 295 297 280 251 270 276 277 278 282 275 266 260 273 272 247 229 207 196 215 229 229 220 202 204 202 200 215
50 358 338 343 314 317 334 310 295 292 286 281 282 276 276 290 292 287 284 259 272 278 274 261 258 266 258 245 245 259 260 252 236 226 221 232 232 227 208 204 201 203 237
11 328 307 279 304 327 314 300 288 296 296 282 278 275 275 287 291 284 274 263 274 282 286 283 266 263 269 255 231 246 265 269 259 240 235 239 239 229 207 176 175 173 213
308 294 301 306 277 272 271 279 289 283 284 295 291 282 276 282 292 288 271 232 259 275 286 290 279 270 281 262 231 234 250 258 257 264 257 264 254 244 221 206 196 189 186
304 332 344 326 293 277 284 289 297 298 310 312 305 299 290 284 294 291 281 236 236 254 264 270 272 274 273 268 254 240 246 249 239 232 242 254 259 247 240 226 211 196 193
356 1 343 329 322 340 320 307 304 296 302 302 304 307 300 293 291 290 285 267 258 246 254 256 262 272 272 269 261 257 260 251 230 225 231 239 238 238 238 231 223 216 209
18 356 336 334 330 331 319 308 313 310 298 296 296 296 300 301 298 296 293 285 276 264 261 263 267 271 274 269 260 261 262 239 218 224 230 233 231 227 222 222 237 223 232
10 337 332 330 321 321 314 304 300 294 292 296 295 291 294 298 295 297 295 290 283 278 276 277 276 272 265 261 265 258 240 227 222 227 231 232 223 215 214 201 206 210 201
343 324 324 321 311 308 304 284 277 264 258 269 268 267 279 288 284 288 292 286 276 270 285 289 281 278 268 259 256 252 243 235 235 232 225 226 223 219 224 209 195 202 201
326 316 311 310 308 307 307 309 295 285 292 286 278 276 271 272 289 292 290 285 282 279 277 265 262 255 254 250 247 249 242 234 231 231 226 221 220 218 219 215 204 204 212
285 294 300 305 304 302 301 301 306 310 305 298 290 287 283 288 290 290 288 287 283 272 258 260 260 256 255 247 243 240 239 235 227 225 229 228 223 220 212 211 208 208 214
294 303 307 293 293 293 292 290 288 296 306 304 296 290 290 288 287 289 290 296 290 270 256 259 262 262 260 253 246 244 241 235 228 226 227 228 222 218 215 211 211 211 210
294 288 290 290 293 292 294 295 294 292 291 294 300 302 297 295 293 291 289 271 266 267 263 262 262 263 264 259 253 247 243 236 230 227 225 224 223 220 220 215 212 212 214
291 306 313 300 297 299 299 298 297 295 294 295 295 293 300 304 299 295 279 264 263 264 263 264 263 261 260 256 254 251 245 241 236 232 226 220 217 217 220 217 212 210 219
280 298 312 312 294 291 292 292 291 290 289 289 287 287 288 285 277 277 274 268 264 264 263 263 262 261 259 254 251 248 244 241 233 232 230 221 214 215 217 215 214 211 212
269 275 281 283 284 286 288 285 286 287 289 290 292 294 292 286 277 275 271 269 266 263 261 261 262 258 253 249 245 245 242 237 233 226 228 228 221 217 213 212 211 211 209
272 280 284 284 283 288 292 288 286 286 287 288 288 290 290 280 277 275 275 274 272 270 265 261 262 263 259 250 242 239 241 238 229 221 222 223 221 219 213 211 210 213 214
273 279 283 285 284 280 281 282 282 282 282 285 286 285 283 279 277 276 276 275 273 271 266 261 259 259 259 257 252 243 238 238 233 223 218 218 216 214 216 212 208 212 212
272 275 277 278 279 279 279 281 280 280 281 282 284 284 283 284 284 280 277 275 274 272 269 265 262 260 257 253 250 246 240 234 234 233 225 219 213 207 208 216 214 209 207
271 274 275 276 276 276 276 277 277 277 278 279 279 278 279 281 283 283 281 279 279 277 275 270 263 262 260 254 248 241 238 235 231 228 226 222 214 208 200 209 218 213 204